Location: Wildlife_Club
(35.6000°N, 81.4330°W)
Time: 21:56:37
(UTC-04:00)

Iridium 56 - Visible Passes

Search period start: 27 May 2015 00:00
Search period end: 06 June 2015 00:00
Orbit: 776 x 779 km, 86.4° (Epoch: 27 May)

Date Brightness Start Highest point End Pass type
(mag) Time Alt. Az. Time Alt. Az. Time Alt. Az.
27 May 6.8 04:58:11 10° SSE 05:03:00 41° E 05:07:54 10° NNE visible
28 May 7.9 04:25:51 10° SE 04:29:39 22° E 04:33:37 10° NNE visible
29 May 8.4 03:55:12 10° E 03:56:22 11° E 03:57:54 10° ENE visible
29 May 5.5 05:31:22 10° S 05:36:33 69° W 05:41:46 10° N visible
30 May 6.0 04:57:56 10° SSE 05:03:03 61° E 05:08:12 10° N visible
31 May 7.2 04:25:08 10° SE 04:29:39 32° E 04:34:16 10° NNE visible
01 Jun 8.1 03:53:12 10° ESE 03:56:19 17° E 03:59:41 10° NE visible
01 Jun 5.9 05:31:42 10° SSW 05:36:42 46° W 05:41:43 10° N visible
02 Jun 5.5 04:57:55 10° S 05:03:08 89° W 05:08:23 10° N visible
03 Jun 6.4 04:24:44 10° SSE 04:29:40 47° E 04:34:41 10° NNE visible
04 Jun 7.5 03:52:13 10° SE 03:56:18 25° E 04:00:32 10° NNE visible
04 Jun 6.4 05:32:17 10° SW 05:36:55 31° W 05:41:30 10° NNW visible
05 Jun 8.2 03:20:56 10° ESE 03:23:00 13° E 03:25:24 10° NE visible
05 Jun 5.6 04:58:27 12° SSW 05:03:16 60° W 05:08:25 10° N visible
